{"data":{"norad_id":68938,"epoch":"2026-09-19T07:47:35.791584Z","epoch_age_seconds":120901,"freshness":"FRESH","line1":"1 68938U 26098V   26262.32471981  .00001294  00000+0  21512-3 0  9991","line2":"2 68938  51.9027   3.3225 0001521 133.5811 226.5276 14.76392810 21404","mean_motion":14.7639281,"eccentricity":0.0001521,"inclination_deg":51.9027,"raan_deg":3.3225,"arg_perigee_deg":133.5811,"mean_anomaly_deg":226.5276,"bstar":0.00021512,"rev_number":2140,"period_min":97.535018475198,"perigee_km":639.66588672052,"apogee_km":641.80102711352,"semimajor_km":7018.870456917,"source":"CELESTRAK","updated_at":"2026-09-20T09:00:24.581567Z"}}